Location: Baller�as
(41.9020°N, 0.1554°W)
Time: 10:58:39
(UTC+00:00)

Lacrosse 5 - Pass Details

Date: 10 August 2020
Orbit: 717 x 720 km, 57.0° (Epoch: 20 September)

Event Time Altitude Azimuth Distance (km) Brightness Sun altitude
Rises 19:49:32 0° 313° (NW) 3,127 7.0 -7.9°
Reaches altitude 10° 19:52:45 10° 334° (NNW) 2,206 5.3 -8.5°
Maximum altitude 19:56:01 17° 14° (NNE) 1,780 4.1 -9.0°
Drops below altitude 10° 19:59:18 10° 55° (NE) 2,204 4.1 -9.5°
Enters shadow 20:02:05 - 73° (ENE) 2,986 4.7 -10.0°
